Tracking 18785 objects as of 21-July-2017
HD Live streaming from Space Station
objects crossing your sky now
MAYAK may become the brightest orbital object in the night sky!
Where is MAYAK now?
How to spot MAYAK

PEGASUS

Track PEGASUS now!
10-day predictions
PEGASUS is classified as:


NORAD ID: 42784
Int'l Code: 2017-036V
Perigee: 501.9 km
Apogee: 520.5 km
Inclination: 97.4 °
Period: 94.7 minutes
Semi major axis: 6882 km
RCS: Unknown
Launch date: June 23, 2017
Source: (ASRA)
Launch site: SIRHARIKOTA (SRI)
Uplink (MHz):
Downlink (MHz): 436.670
Beacon (MHz):
Mode: 9600bps GMSK
Call sign: ON03AT
Status: Active

Your satellite tracking list
Your tracking list is empty





NASA's NSSDC Master Catalog

Two Line Element Set (TLE):
1 42784U 17036V   17201.58119388 +.00001552 +00000-0 +73866-4 0  9993
2 42784 097.4481 261.0245 0013501 151.3275 208.8705 15.20590560004102
Source of the keplerian elements: AFSPC